STARLINK-2031 (47648 NORAD) Tracking and Keplerian Element Data

This shows tracking and keplerian element data for the satellite.

Feedback or suggestion? Click here.




ElementValue
Catalog47648
NameSTARLINK-2031
Epoch Orbit235
Epoch Day57.16667824
Epoch Year2021
RAAN52.0329
Inclination53.0494
Eccentricity0.000797
Argument of Perigee272.4733
Mean Anonmoly342.7735
Mean Motion15.85952848
Decay Rate0.00058437
L11 47648U 21012AE 21057.16667824 .00058437 00000-0 23374-3 0 9999
L22 47648 53.0494 52.0329 0007970 272.4733 342.7735 15.85952848 2354

Live tracking and technical data element details for STARLINK-2031 (NORAD 47648). STARLINK-2031 can be tracked NOW for your location showing map with azimuth and elevation plus other details from your city location.

Track the satellite on the map from your city or location and see movement details for azimuth, elevation, latitude, longitude, range, height, and movement on the map or in text.







IsCatalogInMostPopularTable: catalog: 47648, numindb: 1
Update: records affected: 1



GetName: 47648 STARLINK-2031

Hit Count: updated at: Fri, 26 Feb 2021 10:28:29 GMT